,,,PA_Meas_PMT16A,,PR_Meas_QMR101_102,,RH_Meas_QMH101,,SR_Meas_QMS101,,TA_Meas_QMH101,,GenWind,,GenWind,
date,time,status,PA,status,PR,status,RH,status,SR,status,TA,status,DirAvg,status,SpdAvg,
2009-10-27, 00:00:05,VALID,1003.2,VALID,0,VALID,82.9946,VALID,0,VALID,26.0791,VALID,352,VALID,0.729688,
2009-10-27, 00:01:05,VALID,1003.19,VALID,0,VALID,83.1319,VALID,0,VALID,26.0596,VALID,357,VALID,0.996094,
2009-10-27, 00:02:05,VALID,1003.14,VALID,0,VALID,83.109,VALID,0,VALID,26.0791,VALID,350,VALID,0.705469,
2009-10-27, 00:03:05,VALID,1003.13,VALID,0,VALID,83.2845,VALID,0,VALID,26.0596,VALID,290,VALID,0.403125,
2009-10-27, 00:04:05,VALID,1003.12,VALID,0,VALID,83.2769,VALID,0,VALID,26.0401,VALID,333,VALID,0.444922,
2009-10-27, 00:05:05,VALID,1003.1,VALID,0,VALID,83.2997,VALID,0,VALID,26.0206,VALID,345,VALID,0.787891,
2009-10-27, 00:06:05,VALID,1003.06,VALID,0,VALID,83.3379,VALID,0,VALID,26.0012,VALID,355,VALID,0.508984,
2009-10-27, 00:07:05,VALID,1003.07,VALID,0,VALID,83.5362,VALID,0,VALID,25.9797,VALID,351,VALID,0.273047,
2009-10-27, 00:08:05,VALID,1003.08,VALID,0,VALID,83.4676,VALID,0,VALID,26.0012,VALID,345,VALID,0.310156,
2009-10-27, 00:09:05,VALID,1003.07,VALID,0,VALID,83.4371,VALID,0,VALID,26.0012,VALID,336,VALID,0.707422,
2009-10-27, 00:10:05,VALID,1003.06,VALID,0,VALID,83.4981,VALID,0,VALID,25.9817,VALID,334,VALID,0.564062,
2009-10-27, 00:11:05,VALID,1003.05,VALID,0,VALID,83.4676,VALID,0,VALID,26.0012,VALID,345,VALID,0.796875,
2009-10-27, 00:12:05,VALID,1003.01,VALID,0,VALID,83.4828,VALID,0,VALID,26.0012,VALID,352,VALID,0.5625,
2009-10-27, 00:13:05,VALID,1003.01,VALID,0,VALID,83.3226,VALID,0,VALID,26.0012,VALID,353,VALID,1.09258,
2009-10-27, 00:14:05,VALID,1002.99,VALID,0,VALID,83.3074,VALID,0,VALID,25.9992,VALID,349,VALID,0.814062,
2009-10-27, 00:15:05,VALID,1002.97,VALID,0,VALID,83.3074,VALID,0,VALID,26.0206,VALID,347,VALID,0.967969,
2009-10-27, 00:16:05,VALID,1002.95,VALID,0,VALID,83.1548,VALID,0,VALID,26.0206,VALID,337,VALID,1.06992,
2009-10-27, 00:17:05,VALID,1002.94,VALID,0,VALID,82.9793,VALID,0,VALID,26.0401,VALID,349,VALID,0.864062,
2009-10-27, 00:18:05,VALID,1002.89,VALID,0,VALID,82.9717,VALID,0,VALID,26.1005,VALID,352,VALID,0.794141,
2009-10-27, 00:19:05,VALID,1002.89,VALID,0,VALID,82.903,VALID,0,VALID,26.0791,VALID,353,VALID,0.423438,
2009-10-27, 00:20:05,VALID,1002.86,VALID,0,VALID,83.0022,VALID,0,VALID,26.0985,VALID,353,VALID,0,
2009-10-27, 00:21:05,VALID,1002.88,VALID,0,VALID,83.0404,VALID,0,VALID,26.0791,VALID,339,VALID,0.214062,
2009-10-27, 00:22:05,VALID,1002.87,VALID,0,VALID,83.0251,VALID,0,VALID,26.0791,VALID,341,VALID,0.240234,
2009-10-27, 00:23:05,VALID,1002.87,VALID,0,VALID,83.048,VALID,0,VALID,26.0791,VALID,342,VALID,0,
2009-10-27, 00:24:05,VALID,1002.86,VALID,0,VALID,82.8802,VALID,0,VALID,26.0791,VALID,342,VALID,0.192578,
2009-10-27, 00:25:05,VALID,1002.85,VALID,0,VALID,82.9564,VALID,0,VALID,26.0576,VALID,338,VALID,0.353125,
2009-10-27, 00:26:05,VALID,1002.84,VALID,0,VALID,82.636,VALID,0,VALID,26.0791,VALID,297,VALID,0.417969,
2009-10-27, 00:27:05,VALID,1002.85,VALID,0,VALID,82.4987,VALID,0,VALID,26.0771,VALID,347,VALID,1.01289,
2009-10-27, 00:28:05,VALID,1002.83,VALID,0,VALID,82.3614,VALID,0,VALID,26.118,VALID,357,VALID,1.14063,
2009-10-27, 00:29:05,VALID,1002.82,VALID,0,VALID,82.4911,VALID,0,VALID,26.157,VALID,356,VALID,0.768359,
2009-10-27, 00:30:05,VALID,1002.85,VALID,0,VALID,82.7734,VALID,0,VALID,26.0966,VALID,355,VALID,0.440234,
2009-10-27, 00:31:05,VALID,1002.84,VALID,0,VALID,82.8878,VALID,0,VALID,26.0791,VALID,360,VALID,0.749219,
2009-10-27, 00:32:05,VALID,1002.81,VALID,0,VALID,83.2006,VALID,0,VALID,26.0206,VALID,354,VALID,0.537109,
2009-10-27, 00:33:05,VALID,1002.82,VALID,0,VALID,83.4371,VALID,0,VALID,25.9408,VALID,353,VALID,0.400781,
2009-10-27, 00:34:05,VALID,1002.83,VALID,0,VALID,83.6354,VALID,0,VALID,25.9018,VALID,352,VALID,0.509766,
2009-10-27, 00:35:05,VALID,1002.81,VALID,0,VALID,84.0245,VALID,0,VALID,25.8629,VALID,345,VALID,0.371484,
2009-10-27, 00:36:05,VALID,1002.82,VALID,0,VALID,84.2152,VALID,0,VALID,25.8259,VALID,345,VALID,0.408984,
2009-10-27, 00:37:05,VALID,1002.82,VALID,0,VALID,84.3449,VALID,0,VALID,25.7674,VALID,345,VALID,0.428125,
2009-10-27, 00:38:05,VALID,1002.84,VALID,0,VALID,84.6043,VALID,0,VALID,25.748,VALID,348,VALID,0.137109,
2009-10-27, 00:39:05,VALID,1002.84,VALID,0,VALID,84.8484,VALID,0,VALID,25.709,VALID,348,VALID,0.0191406,
2009-10-27, 00:40:05,VALID,1002.83,VALID,0,VALID,85.1459,VALID,0,VALID,25.6895,VALID,322,VALID,0.216406,
2009-10-27, 00:41:05,VALID,1002.85,VALID,0,VALID,85.3748,VALID,0,VALID,25.67,VALID,322,VALID,0.0882813,
2009-10-27, 00:42:05,VALID,1002.86,VALID,0,VALID,85.5808,VALID,0,VALID,25.6097,VALID,322,VALID,0,
2009-10-27, 00:43:05,VALID,1002.8,VALID,0,VALID,85.6876,VALID,0,VALID,25.5902,VALID,322,VALID,0.0761719,
2009-10-27, 00:44:05,VALID,1002.82,VALID,0,VALID,85.7944,VALID,0,VALID,25.5707,VALID,322,VALID,0.0183594,
2009-10-27, 00:45:05,VALID,1002.82,VALID,0,VALID,85.8478,VALID,0,VALID,25.5532,VALID,322,VALID,0,
2009-10-27, 00:46:05,VALID,1002.84,VALID,0,VALID,85.8325,VALID,0,VALID,25.5337,VALID,320,VALID,0.301172,
2009-10-27, 00:47:05,VALID,1002.81,VALID,0,VALID,85.6952,VALID,0,VALID,25.5123,VALID,318,VALID,0.142969,
2009-10-27, 00:48:05,VALID,1002.79,VALID,0,VALID,85.7181,VALID,0,VALID,25.5532,VALID,283,VALID,0.0921875,
2009-10-27, 00:49:05,VALID,1002.83,VALID,0,VALID,85.5655,VALID,0,VALID,25.5318,VALID,285,VALID,0.162891,
2009-10-27, 00:50:05,VALID,1002.82,VALID,0,VALID,85.5198,VALID,0,VALID,25.5513,VALID,281,VALID,0,
2009-10-27, 00:51:05,VALID,1002.83,VALID,0,VALID,85.596,VALID,0,VALID,25.5513,VALID,281,VALID,0.137109,
2009-10-27, 00:52:05,VALID,1002.81,VALID,0,VALID,85.6266,VALID,0.100563,VALID,25.5707,VALID,281,VALID,0.540625,
2009-10-27, 00:53:05,VALID,1002.84,VALID,0,VALID,85.5579,VALID,0,VALID,25.5707,VALID,281,VALID,0.321094,
2009-10-27, 00:54:05,VALID,1002.81,VALID,0,VALID,85.4282,VALID,0,VALID,25.5707,VALID,282,VALID,0.257031,
2009-10-27, 00:55:05,VALID,1002.77,VALID,0,VALID,85.3748,VALID,0,VALID,25.5902,VALID,282,VALID,0.237891,
2009-10-27, 00:56:05,VALID,1002.76,VALID,0,VALID,85.3061,VALID,0,VALID,25.5902,VALID,282,VALID,0.117188,
2009-10-27, 00:57:05,VALID,1002.74,VALID,0,VALID,85.2222,VALID,0,VALID,25.6116,VALID,282,VALID,0,
2009-10-27, 00:58:05,VALID,1002.73,VALID,0,VALID,85.123,VALID,0,VALID,25.6116,VALID,320,VALID,0.463672,
2009-10-27, 00:59:05,VALID,1002.71,VALID,0,VALID,85.1307,VALID,0,VALID,25.6116,VALID,317,VALID,0.194922,
2009-10-27, 01:00:05,VALID,1002.75,VALID,0,VALID,85.1078,VALID,0,VALID,25.6506,VALID,314,VALID,0.264844,
2009-10-27, 01:01:05,VALID,1002.71,VALID,0,VALID,85.0468,VALID,0,VALID,25.6311,VALID,312,VALID,0.152344,
2009-10-27, 01:02:05,VALID,1002.72,VALID,0,VALID,85.1307,VALID,0,VALID,25.6311,VALID,360,VALID,0.328125,
2009-10-27, 01:03:05,VALID,1002.7,VALID,0,VALID,84.9781,VALID,0,VALID,25.6311,VALID,341,VALID,0.352734,
2009-10-27, 01:04:05,VALID,1002.7,VALID,0,VALID,85.0162,VALID,0,VALID,25.6097,VALID,341,VALID,0.0121094,
2009-10-27, 01:05:05,VALID,1002.67,VALID,0,VALID,85.0544,VALID,0,VALID,25.5902,VALID,333,VALID,0.121094,
2009-10-27, 01:06:05,VALID,1002.64,VALID,0,VALID,85.001,VALID,0.100563,VALID,25.6116,VALID,335,VALID,0.261719,
2009-10-27, 01:07:05,VALID,1002.64,VALID,0,VALID,85.0391,VALID,0,VALID,25.5707,VALID,290,VALID,0.413672,
2009-10-27, 01:08:05,VALID,1002.61,VALID,0,VALID,85.0086,VALID,0,VALID,25.5902,VALID,292,VALID,0.606641,
2009-10-27, 01:09:05,VALID,1002.62,VALID,0,VALID,84.9934,VALID,0,VALID,25.6116,VALID,295,VALID,0.824219,
2009-10-27, 01:10:05,VALID,1002.59,VALID,0,VALID,84.7492,VALID,0,VALID,25.6311,VALID,297,VALID,1.04531,
2009-10-27, 01:11:05,VALID,1002.59,VALID,0,VALID,84.5509,VALID,0,VALID,25.6486,VALID,290,VALID,1.24063,
2009-10-27, 01:12:05,VALID,1002.6,VALID,0,VALID,84.3296,VALID,0,VALID,25.6895,VALID,292,VALID,0.892969,
2009-10-27, 01:13:05,VALID,1002.58,VALID,0,VALID,84.3449,VALID,0,VALID,25.7285,VALID,292,VALID,0.541406,
2009-10-27, 01:14:05,VALID,1002.58,VALID,0,VALID,84.3068,VALID,0,VALID,25.7285,VALID,295,VALID,0.687891,
2009-10-27, 01:15:05,VALID,1002.56,VALID,0,VALID,84.3068,VALID,0,VALID,25.7285,VALID,293,VALID,0.545703,
2009-10-27, 01:16:05,VALID,1002.55,VALID,0,VALID,84.3602,VALID,0,VALID,25.7285,VALID,291,VALID,0.885547,
2009-10-27, 01:17:05,VALID,1002.51,VALID,0,VALID,84.4593,VALID,0,VALID,25.709,VALID,284,VALID,0.239844,
2009-10-27, 01:18:05,VALID,1002.54,VALID,0,VALID,84.5509,VALID,0,VALID,25.6681,VALID,297,VALID,0.531641,
2009-10-27, 01:19:05,VALID,1002.54,VALID,0,VALID,84.6729,VALID,0,VALID,25.6506,VALID,287,VALID,0.413672,
2009-10-27, 01:20:05,VALID,1002.54,VALID,0,VALID,84.6424,VALID,0,VALID,25.6525,VALID,287,VALID,0.252344,
2009-10-27, 01:21:05,VALID,1002.52,VALID,0,VALID,84.8255,VALID,0,VALID,25.6525,VALID,286,VALID,0,
2009-10-27, 01:22:04,VALID,1002.5,VALID,0,VALID,84.9247,VALID,0,VALID,25.6116,VALID,286,VALID,0,
2009-10-27, 01:23:04,VALID,1002.51,VALID,0,VALID,85.123,VALID,0,VALID,25.5532,VALID,286,VALID,0,
2009-10-27, 01:24:04,VALID,1002.5,VALID,0,VALID,85.2604,VALID,0,VALID,25.5142,VALID,286,VALID,0.304688,
2009-10-27, 01:25:04,VALID,1002.49,VALID,0,VALID,85.474,VALID,0,VALID,25.4753,VALID,286,VALID,0.00507812,
2009-10-27, 01:26:04,VALID,1002.48,VALID,0,VALID,85.6113,VALID,0,VALID,25.4558,VALID,286,VALID,0.202734,
2009-10-27, 01:27:04,VALID,1002.48,VALID,0,VALID,85.6113,VALID,0,VALID,25.3955,VALID,286,VALID,0.00351562,
2009-10-27, 01:28:04,VALID,1002.47,VALID,0,VALID,85.7639,VALID,0,VALID,25.3974,VALID,286,VALID,0,
2009-10-27, 01:29:04,VALID,1002.48,VALID,0,VALID,85.9546,VALID,0,VALID,25.3584,VALID,286,VALID,0.384375,
2009-10-27, 01:30:04,VALID,1002.46,VALID,0,VALID,86.1606,VALID,0,VALID,25.339,VALID,286,VALID,0.397266,
2009-10-27, 01:31:04,VALID,1002.49,VALID,0,VALID,86.2521,VALID,0,VALID,25.3195,VALID,286,VALID,0.476953,
2009-10-27, 01:32:04,VALID,1002.49,VALID,0,VALID,86.2292,VALID,0,VALID,25.3195,VALID,274,VALID,0.726563,
2009-10-27, 01:33:04,VALID,1002.5,VALID,0,VALID,86.0004,VALID,0,VALID,25.3584,VALID,271,VALID,0.636328,
2009-10-27, 01:34:04,VALID,1002.5,VALID,0,VALID,85.8707,VALID,0,VALID,25.3993,VALID,271,VALID,0.166797,
2009-10-27, 01:35:04,VALID,1002.48,VALID,0,VALID,85.9241,VALID,0,VALID,25.3584,VALID,278,VALID,0.394141,
2009-10-27, 01:36:04,VALID,1002.48,VALID,0,VALID,86.0614,VALID,0,VALID,25.3565,VALID,267,VALID,0.121484,
2009-10-27, 01:37:04,VALID,1002.48,VALID,0,VALID,86.0767,VALID,0,VALID,25.3584,VALID,298,VALID,0.217578,
2009-10-27, 01:38:04,VALID,1002.46,VALID,0,VALID,85.9851,VALID,0,VALID,25.3779,VALID,303,VALID,0.480469,
2009-10-27, 01:39:04,VALID,1002.45,VALID,0,VALID,85.9851,VALID,0,VALID,25.3584,VALID,307,VALID,0.31875,
2009-10-27, 01:40:04,VALID,1002.44,VALID,0,VALID,86.0614,VALID,0,VALID,25.3176,VALID,307,VALID,0,
2009-10-27, 01:41:04,VALID,1002.42,VALID,0,VALID,86.1911,VALID,0,VALID,25.3,VALID,307,VALID,0,
2009-10-27, 01:42:04,VALID,1002.38,VALID,0,VALID,86.5039,VALID,0,VALID,25.2611,VALID,307,VALID,0,
2009-10-27, 01:43:04,VALID,1002.39,VALID,0,VALID,86.9082,VALID,0,VALID,25.2027,VALID,307,VALID,0,
2009-10-27, 01:44:04,VALID,1002.4,VALID,0,VALID,87.1523,VALID,0,VALID,25.1053,VALID,307,VALID,0,
2009-10-27, 01:45:04,VALID,1002.35,VALID,0,VALID,87.4651,VALID,0,VALID,25.0255,VALID,308,VALID,0,
2009-10-27, 01:46:04,VALID,1002.36,VALID,0,VALID,87.5872,VALID,0,VALID,24.9106,VALID,328,VALID,0.576172,
2009-10-27, 01:47:04,VALID,1002.36,VALID,0,VALID,88.0754,VALID,0,VALID,24.7529,VALID,4,VALID,0.723047,
2009-10-27, 01:48:04,VALID,1002.36,VALID,0,VALID,88.7391,VALID,0,VALID,24.638,VALID,4,VALID,0.704297,
2009-10-27, 01:49:04,VALID,1002.35,VALID,0,VALID,89.2808,VALID,0,VALID,24.5212,VALID,4,VALID,0.476953,
2009-10-27, 01:50:04,VALID,1002.32,VALID,0,VALID,89.7156,VALID,0,VALID,24.4043,VALID,4,VALID,0.507813,
2009-10-27, 01:51:04,VALID,1002.31,VALID,0,VALID,90.181,VALID,0,VALID,24.3478,VALID,4,VALID,0.48125,
2009-10-27, 01:52:04,VALID,1002.3,VALID,0,VALID,90.5624,VALID,0,VALID,24.2291,VALID,4,VALID,0.730078,
2009-10-27, 01:53:04,VALID,1002.32,VALID,0,VALID,90.9744,VALID,0,VALID,24.1902,VALID,4,VALID,0.586719,
2009-10-27, 01:54:04,VALID,1002.34,VALID,0,VALID,91.2414,VALID,0,VALID,24.1105,VALID,4,VALID,0.614453,
2009-10-27, 01:55:04,VALID,1002.32,VALID,0,VALID,91.4855,VALID,0,VALID,24.0521,VALID,4,VALID,0.421875,
2009-10-27, 01:56:04,VALID,1002.33,VALID,0,VALID,91.7449,VALID,0,VALID,24.0345,VALID,4,VALID,0.303906,
2009-10-27, 01:57:04,VALID,1002.3,VALID,0,VALID,91.989,VALID,0,VALID,24.0345,VALID,4,VALID,0,
2009-10-27, 01:58:04,VALID,1002.29,VALID,0,VALID,92.0958,VALID,0,VALID,24.015,VALID,4,VALID,0,
2009-10-27, 01:59:04,VALID,1002.29,VALID,0,VALID,92.2789,VALID,0,VALID,23.9955,VALID,4,VALID,0.276172,
2009-10-27, 02:00:04,VALID,1002.27,VALID,0,VALID,92.5002,VALID,0,VALID,24.0132,VALID,4,VALID,0.0769531,
2009-10-27, 02:01:04,VALID,1002.27,VALID,0,VALID,92.5231,VALID,0,VALID,24.0345,VALID,4,VALID,0.194531,
2009-10-27, 02:02:04,VALID,1002.25,VALID,0,VALID,92.4925,VALID,0,VALID,24.0521,VALID,4,VALID,0.0449219,
2009-10-27, 02:03:04,VALID,1002.21,VALID,0,VALID,92.5002,VALID,0,VALID,24.0929,VALID,4,VALID,0.310937,
2009-10-27, 02:04:04,VALID,1002.22,VALID,0,VALID,92.2561,VALID,0,VALID,24.0716,VALID,4,VALID,0.470313,
2009-10-27, 02:05:04,VALID,1002.25,VALID,0,VALID,92.2484,VALID,0,VALID,24.0521,VALID,4,VALID,0.571875,
2009-10-27, 02:06:04,VALID,1002.25,VALID,0,VALID,92.2866,VALID,0,VALID,24.0345,VALID,4,VALID,0.655078,
2009-10-27, 02:07:04,VALID,1002.26,VALID,0,VALID,92.2484,VALID,0,VALID,23.9742,VALID,4,VALID,0.575,
2009-10-27, 02:08:04,VALID,1002.25,VALID,0,VALID,92.3552,VALID,0,VALID,23.9566,VALID,4,VALID,0.376953,
2009-10-27, 02:09:04,VALID,1002.25,VALID,0,VALID,92.4925,VALID,0,VALID,23.9159,VALID,4,VALID,0.393359,
2009-10-27, 02:10:04,VALID,1002.26,VALID,0,VALID,92.5993,VALID,0,VALID,23.9353,VALID,334,VALID,0.325,
2009-10-27, 02:11:04,VALID,1002.26,VALID,0,VALID,92.5917,VALID,0,VALID,23.9159,VALID,334,VALID,0.267188,
2009-10-27, 02:12:04,VALID,1002.3,VALID,0,VALID,92.6299,VALID,0,VALID,23.9159,VALID,334,VALID,0,
2009-10-27, 02:13:04,VALID,1002.3,VALID,0,VALID,92.7367,VALID,0,VALID,23.8964,VALID,334,VALID,0.389844,
2009-10-27, 02:14:04,VALID,1002.33,VALID,0,VALID,92.8511,VALID,0,VALID,23.9353,VALID,338,VALID,0.718359,
2009-10-27, 02:15:04,VALID,1002.36,VALID,0,VALID,92.7901,VALID,0,VALID,24.0132,VALID,345,VALID,0.407031,
2009-10-27, 02:16:04,VALID,1002.39,VALID,0,VALID,92.3857,VALID,0,VALID,24.1105,VALID,345,VALID,0.0449219,
2009-10-27, 02:17:04,VALID,1002.38,VALID,0,VALID,92.0424,VALID,0,VALID,24.1494,VALID,345,VALID,0,
2009-10-27, 02:18:04,VALID,1002.34,VALID,0,VALID,91.8212,VALID,0,VALID,24.1884,VALID,345,VALID,0,
2009-10-27, 02:19:04,VALID,1002.33,VALID,0,VALID,91.661,VALID,0,VALID,24.2078,VALID,345,VALID,0,
2009-10-27, 02:20:04,VALID,1002.33,VALID,0,VALID,91.5084,VALID,0,VALID,24.2486,VALID,345,VALID,0,
2009-10-27, 02:21:04,VALID,1002.31,VALID,0,VALID,91.3558,VALID,0,VALID,24.307,VALID,345,VALID,0.0710938,
2009-10-27, 02:22:04,VALID,1002.31,VALID,0,VALID,91.1041,VALID,0,VALID,24.3246,VALID,301,VALID,0.450391,
2009-10-27, 02:23:04,VALID,1002.32,VALID,0,VALID,90.6464,VALID,0,VALID,24.4628,VALID,342,VALID,0.454297,
2009-10-27, 02:24:04,VALID,1002.34,VALID,0,VALID,89.9903,VALID,0,VALID,24.5601,VALID,8,VALID,0.608594,
2009-10-27, 02:25:04,VALID,1002.33,VALID,0,VALID,89.296,VALID,0,VALID,24.6556,VALID,356,VALID,0.663281,
2009-10-27, 02:26:04,VALID,1002.31,VALID,0,VALID,88.64,VALID,0,VALID,24.7724,VALID,358,VALID,0.293359,
2009-10-27, 02:27:04,VALID,1002.34,VALID,0,VALID,88.2127,VALID,0,VALID,24.8522,VALID,358,VALID,0.425781,
2009-10-27, 02:28:04,VALID,1002.31,VALID,0,VALID,87.9381,VALID,0,VALID,24.8327,VALID,358,VALID,0.45625,
2009-10-27, 02:29:04,VALID,1002.27,VALID,0,VALID,87.8084,VALID,0,VALID,24.8308,VALID,312,VALID,0.536328,
2009-10-27, 02:30:04,VALID,1002.24,VALID,0,VALID,87.8313,VALID,0,VALID,24.8308,VALID,358,VALID,0.530859,
2009-10-27, 02:31:04,VALID,1002.21,VALID,0,VALID,87.8008,VALID,0,VALID,24.8522,VALID,358,VALID,0.504297,
2009-10-27, 02:32:04,VALID,1002.18,VALID,0,VALID,87.5872,VALID,0,VALID,24.9106,VALID,348,VALID,0.783984,
2009-10-27, 02:33:04,VALID,1002.18,VALID,0,VALID,87.1523,VALID,0,VALID,24.9671,VALID,342,VALID,0.513281,
2009-10-27, 02:34:04,VALID,1002.18,VALID,0,VALID,86.7861,VALID,0,VALID,25.0644,VALID,310,VALID,0.473828,
2009-10-27, 02:35:04,VALID,1002.16,VALID,0,VALID,86.4047,VALID,0,VALID,25.1637,VALID,352,VALID,0.637109,
2009-10-27, 02:36:04,VALID,1002.16,VALID,0,VALID,86.0461,VALID,0,VALID,25.2007,VALID,2,VALID,0.951953,
2009-10-27, 02:37:04,VALID,1002.12,VALID,0,VALID,85.5808,VALID,0,VALID,25.2592,VALID,349,VALID,0.970312,
2009-10-27, 02:38:04,VALID,1002.1,VALID,0,VALID,85.1307,VALID,0,VALID,25.3565,VALID,358,VALID,1.03555,
2009-10-27, 02:39:04,VALID,1002.08,VALID,0,VALID,84.7035,VALID,0,VALID,25.4558,VALID,331,VALID,0.791406,
2009-10-27, 02:40:04,VALID,1002.06,VALID,0,VALID,84.6043,VALID,0,VALID,25.5142,VALID,342,VALID,0.549609,
2009-10-27, 02:41:04,VALID,1002.04,VALID,0,VALID,84.4517,VALID,0,VALID,25.5318,VALID,343,VALID,0.930859,
2009-10-27, 02:42:04,VALID,1002,VALID,0,VALID,84.3754,VALID,0,VALID,25.5707,VALID,338,VALID,0.91875,
2009-10-27, 02:43:04,VALID,1002.01,VALID,0,VALID,84.1237,VALID,0,VALID,25.6681,VALID,349,VALID,1.21914,
2009-10-27, 02:44:04,VALID,1001.97,VALID,0,VALID,83.7956,VALID,0,VALID,25.746,VALID,345,VALID,0.601172,
2009-10-27, 02:45:04,VALID,1001.96,VALID,0,VALID,83.7804,VALID,0,VALID,25.7655,VALID,360,VALID,0.916797,
2009-10-27, 02:46:04,VALID,1001.98,VALID,0,VALID,83.8185,VALID,0,VALID,25.8064,VALID,291,VALID,0.577344,
2009-10-27, 02:47:04,VALID,1001.99,VALID,0,VALID,83.6964,VALID,0,VALID,25.8044,VALID,15,VALID,0.728906,
2009-10-27, 02:48:04,VALID,1001.98,VALID,0,VALID,83.8109,VALID,0,VALID,25.8044,VALID,303,VALID,0.378125,
2009-10-27, 02:49:04,VALID,1001.95,VALID,0,VALID,83.7575,VALID,0,VALID,25.8044,VALID,314,VALID,0.558203,
2009-10-27, 02:50:04,VALID,1001.95,VALID,0,VALID,83.8414,VALID,0.100563,VALID,25.8259,VALID,4,VALID,0.478125,
2009-10-27, 02:51:04,VALID,1001.91,VALID,0,VALID,83.9253,VALID,0.100563,VALID,25.8259,VALID,313,VALID,0.785547,
2009-10-27, 02:52:04,VALID,1001.9,VALID,0,VALID,83.849,VALID,0,VALID,25.785,VALID,332,VALID,1.25273,
2009-10-27, 02:53:04,VALID,1001.89,VALID,0,VALID,83.994,VALID,0,VALID,25.8259,VALID,294,VALID,0.542969,
2009-10-27, 02:54:04,VALID,1001.86,VALID,0,VALID,84.1084,VALID,0,VALID,25.8064,VALID,342,VALID,0.551562,
2009-10-27, 02:55:04,VALID,1001.84,VALID,0,VALID,84.1771,VALID,0,VALID,25.7655,VALID,356,VALID,0.955469,
2009-10-27, 02:56:04,VALID,1001.81,VALID,0,VALID,84.2915,VALID,0,VALID,25.746,VALID,350,VALID,0.244141,
2009-10-27, 02:57:04,VALID,1001.8,VALID,0,VALID,84.4517,VALID,0,VALID,25.746,VALID,30,VALID,0.964844,
2009-10-27, 02:58:04,VALID,1001.79,VALID,0,VALID,84.4822,VALID,0,VALID,25.748,VALID,335,VALID,0.872656,
2009-10-27, 02:59:04,VALID,1001.78,VALID,0,VALID,84.5127,VALID,0,VALID,25.746,VALID,320,VALID,0.989844,
2009-10-27, 03:00:04,VALID,1001.79,VALID,0,VALID,84.3907,VALID,0,VALID,25.7869,VALID,360,VALID,0.942187,
2009-10-27, 03:01:04,VALID,1001.81,VALID,0,VALID,84.3449,VALID,0.100563,VALID,25.8064,VALID,334,VALID,1.00898,
2009-10-27, 03:02:04,VALID,1001.84,VALID,0,VALID,84.3754,VALID,0,VALID,25.785,VALID,313,VALID,0.362891,
2009-10-27, 03:03:04,VALID,1001.85,VALID,0,VALID,84.3907,VALID,0,VALID,25.785,VALID,325,VALID,0.717578,
2009-10-27, 03:04:04,VALID,1001.83,VALID,0,VALID,84.5051,VALID,0,VALID,25.785,VALID,352,VALID,0.408203,
2009-10-27, 03:05:04,VALID,1001.85,VALID,0,VALID,84.6424,VALID,0,VALID,25.7655,VALID,280,VALID,0.536719,
2009-10-27, 03:06:04,VALID,1001.85,VALID,0,VALID,84.7035,VALID,0,VALID,25.7655,VALID,343,VALID,0.3375,
2009-10-27, 03:07:04,VALID,1001.87,VALID,0,VALID,84.7797,VALID,0,VALID,25.746,VALID,221,VALID,0.0707031,
2009-10-27, 03:08:04,VALID,1001.84,VALID,0,VALID,84.6501,VALID,0,VALID,25.7655,VALID,355,VALID,0.402734,
2009-10-27, 03:09:04,VALID,1001.87,VALID,0,VALID,84.4975,VALID,0,VALID,25.8044,VALID,345,VALID,0.559375,
2009-10-27, 03:10:04,VALID,1001.88,VALID,0,VALID,84.5433,VALID,0,VALID,25.8259,VALID,6,VALID,0.121094,
2009-10-27, 03:11:04,VALID,1001.84,VALID,0,VALID,84.322,VALID,0,VALID,25.8648,VALID,6,VALID,0.676562,
2009-10-27, 03:12:04,VALID,1001.84,VALID,0,VALID,84.2991,VALID,0,VALID,25.8648,VALID,330,VALID,0.612109,
2009-10-27, 03:13:04,VALID,1001.84,VALID,0,VALID,84.261,VALID,0,VALID,25.8453,VALID,316,VALID,1.19727,
2009-10-27, 03:14:04,VALID,1001.89,VALID,0,VALID,84.2534,VALID,0,VALID,25.8629,VALID,301,VALID,0.244531,
2009-10-27, 03:15:04,VALID,1001.85,VALID,0,VALID,84.2305,VALID,0,VALID,25.8434,VALID,102,VALID,0.437891,
2009-10-27, 03:16:04,VALID,1001.88,VALID,0,VALID,84.2457,VALID,0,VALID,25.8648,VALID,25,VALID,0.430078,
2009-10-27, 03:17:04,VALID,1001.84,VALID,0,VALID,84.1694,VALID,0,VALID,25.8843,VALID,353,VALID,0.941406,
2009-10-27, 03:18:04,VALID,1001.87,VALID,0,VALID,84.1466,VALID,0,VALID,25.8843,VALID,318,VALID,0.504687,
2009-10-27, 03:19:04,VALID,1001.86,VALID,0,VALID,84.0169,VALID,0,VALID,25.9232,VALID,332,VALID,0.496094,
2009-10-27, 03:20:04,VALID,1001.87,VALID,0,VALID,83.994,VALID,0,VALID,25.9213,VALID,261,VALID,0.398047,
2009-10-27, 03:21:04,VALID,1001.85,VALID,0,VALID,83.7727,VALID,0,VALID,25.9817,VALID,304,VALID,0.433594,
2009-10-27, 03:22:04,VALID,1001.86,VALID,0,VALID,83.6659,VALID,0,VALID,25.9992,VALID,327,VALID,0.658203,
2009-10-27, 03:23:04,VALID,1001.83,VALID,0,VALID,83.315,VALID,0,VALID,26.0576,VALID,276,VALID,1.47148,
2009-10-27, 03:24:04,VALID,1001.82,VALID,0,VALID,82.9183,VALID,0,VALID,26.157,VALID,350,VALID,1.36094,
2009-10-27, 03:25:04,VALID,1001.76,VALID,0,VALID,82.6284,VALID,0,VALID,26.2134,VALID,329,VALID,1.22266,
2009-10-27, 03:26:04,VALID,1001.78,VALID,0,VALID,82.1859,VALID,0,VALID,26.3128,VALID,355,VALID,1.95156,
2009-10-27, 03:27:04,VALID,1001.76,VALID,0,VALID,81.9723,VALID,0,VALID,26.3713,VALID,4,VALID,1.20156,
2009-10-27, 03:28:04,VALID,1001.74,VALID,0,VALID,81.8426,VALID,0,VALID,26.4102,VALID,321,VALID,0.876953,
2009-10-27, 03:29:04,VALID,1001.75,VALID,0,VALID,81.7282,VALID,0,VALID,26.4297,VALID,328,VALID,1.44805,
2009-10-27, 03:30:04,VALID,1001.71,VALID,0,VALID,81.5832,VALID,0,VALID,26.4881,VALID,5,VALID,0.994141,
2009-10-27, 03:31:04,VALID,1001.68,VALID,0,VALID,81.6138,VALID,0,VALID,26.5076,VALID,8,VALID,1.03984,
2009-10-27, 03:32:04,VALID,1001.69,VALID,0,VALID,81.5756,VALID,0,VALID,26.5076,VALID,351,VALID,1.31641,
2009-10-27, 03:33:04,VALID,1001.72,VALID,0,VALID,81.3239,VALID,0,VALID,26.5466,VALID,351,VALID,1.19727,
2009-10-27, 03:34:04,VALID,1001.71,VALID,0,VALID,81.1637,VALID,0,VALID,26.605,VALID,355,VALID,1.92422,
2009-10-27, 03:35:04,VALID,1001.74,VALID,0,VALID,81.0187,VALID,0,VALID,26.6245,VALID,351,VALID,1.62578,
2009-10-27, 03:36:04,VALID,1001.71,VALID,0,VALID,81.1103,VALID,0,VALID,26.644,VALID,346,VALID,1.53789,
2009-10-27, 03:37:04,VALID,1001.73,VALID,0,VALID,81.2705,VALID,0,VALID,26.6245,VALID,9,VALID,0.471484,
2009-10-27, 03:38:04,VALID,1001.73,VALID,0,VALID,81.3162,VALID,0,VALID,26.5855,VALID,295,VALID,0.783203,
2009-10-27, 03:39:04,VALID,1001.76,VALID,0,VALID,81.5375,VALID,0,VALID,26.5661,VALID,356,VALID,0.639453,
2009-10-27, 03:40:04,VALID,1001.75,VALID,0,VALID,81.6824,VALID,0,VALID,26.4861,VALID,329,VALID,0.4,
2009-10-27, 03:41:04,VALID,1001.78,VALID,0,VALID,81.8579,VALID,0,VALID,26.4687,VALID,319,VALID,0.452344,
2009-10-27, 03:42:04,VALID,1001.78,VALID,0,VALID,81.9418,VALID,0,VALID,26.4102,VALID,323,VALID,0.787109,
2009-10-27, 03:43:04,VALID,1001.77,VALID,0,VALID,81.9189,VALID,0,VALID,26.3713,VALID,331,VALID,0.660937,
2009-10-27, 03:44:04,VALID,1001.79,VALID,0,VALID,82.1402,VALID,0,VALID,26.3128,VALID,346,VALID,0.44375,
2009-10-27, 03:45:04,VALID,1001.82,VALID,0,VALID,82.3766,VALID,0,VALID,26.2544,VALID,297,VALID,0.550781,
2009-10-27, 03:46:04,VALID,1001.81,VALID,0,VALID,82.5445,VALID,0,VALID,26.2154,VALID,283,VALID,0.299219,